Showing default

ASNARO, 40298

Orbit data source: Space-Track

ASNARO, 40298 is a payload satellite owned by J-spacesystems (JP) in SSO that was launched on Thu, 06 Nov 2014 UTC via a DNEPR launch vehicle from the Orenburg, Russia (OREN). Payloads include a variety of satellites, spacecraft, and rockets equipped with specific instruments for various scientific and technological missions. These include communications satellites like Starlink; space stations such as the ISS; scientific satellites like the Hubble; Earth observation satellites from companies like Planet Labs, Umbra, and HawkEye 360; GPS; miniature CubeSats for education and research; and military/defense satellites.

Loading next visibility...
ASNARO details
Identifier
40298, 2014-070A
Orbit
SSO
Last TLE update7 hours ago
Origin
Flag of JPJ-spacesystems (JP / JPN)
ManufacturerNEC Toshiba/Fuchu
MissionOperational Civil Imaging
Bus & MotorNEXTAR-300L, AOCS?
Mass495 kg wet, 450 kg dry
Launch date (UTC)
2014-11-06 (10 years ago)
Launch vehicle
DNEPR
Launch site
Orenburg, Russia (OREN)
Object type
Payload
Rocket body
Debris
Shape & HBRCyl + 2 Pan, 3.5 m
Radar Cross Section9.327 m², Large (>1 m²)

Expand to show TLE details & history

TLE from 7 hours ago
0 ASNARO
1 40298U 14070A   24361.16767321  .00022311  00000-0  10599-2 0  9999
2 40298  97.3969  79.0308 0005409 207.1151 152.9802 15.19221987562320
Epoch: 2024-12-26T04:01Z
Definitive object data (Epoch: 2024-12-26T04:01:26.965Z)
Latitude-0.00001°
Longitude-76.4825°
Altitude514.6 km
Speed7.605 km/s
True Right ascension05h 16m 07s
True Declination0° 00' 00"
Sunlit
Object was in full shadow at TLE epoch
Visualization TLE readout
Latitude31.47402°
Longitude108.33524°
Altitude510.301 km
Speed7.613 km/s
Apparent Right ascension19h 43m 17s
Apparent Declination-3° 13' 17"
Sunlit
Object is in daylight
Visualization observer readout
Local Sidereal Time10:21:09
Azimuth54.572° ENE
Elevation-38.846°
Doppler factor1
Orbital elements
Apogee altitude508.88 km
Perigee altitude501.434 km
Semi-major axis6,883.294 km
Eccentricity0.0005409
Inclination97.3969°
RAAN79.0308°
Arg. of periapsis207.1151°
True anomaly153.00834°
Mean anomaly152.9802°
Eccentric anomaly152.99427°
Mean motion3.80057 °/min
BSTAR0.0010599
Orbital period94.72 mins
Loading maneuver chart data...
Loading historical data...
Loading historical data...
Loading historical data...
Loading historical data...
Loading historical data...
Loading historical data...
Loading historical data...

ASNARO Visibility forecast

Observer location: undefined°, undefined

Span
Click to sort rows by Start time (UTC) header in descending order
Start Az.
Max El. time (UTC)
Max El. Az.
Max El.
End time (UTC)
End Az.
4 mins2024-12-26 18:49:53.349Z333.555° NNW2024-12-26 18:51:53.349Z270.917° WNW28.708°2024-12-26 18:53:53.349Z228.905° WSW
6 mins2024-12-27 05:26:53.349Z165.307° S2024-12-27 05:29:53.349Z0.811° NNE43.864°2024-12-27 05:32:53.349Z349.116° N
|